CAPE
0 0 0 0 0 0 0 0 0 0 0 0 0 0 0 0 0 0 2 2 1 4 3 3 4 3 7 9 10 12 10 9 16 14 12 20 9 19 9 7 9 9 15
0 0 0 0 0 0 0 0 1 1 0 0 0 0 0 0 2 1 2 4 4 5 8 5 7 1 2 3 7 8 11 12 9 8 10 13 18 12 24 11 11 11 9
0 2 1 0 0 0 0 1 1 1 2 1 0 0 0 0 1 1 2 2 3 2 7 8 8 7 10 9 7 7 8 6 11 10 10 10 13 13 13 15 15 14 10
0 0 1 0 0 0 0 0 1 2 0 0 0 0 0 0 1 1 1 2 2 1 3 7 10 12 10 15 11 5 10 6 7 9 13 13 9 11 13 12 13 15 12
0 0 0 1 0 0 0 0 0 0 0 0 0 0 3 10 7 2 1 3 2 2 1 5 4 6 4 11 9 8 8 6 10 8 7 9 12 12 16 19 13 18 14
0 0 0 1 0 0 0 0 0 0 0 0 0 0 3 2 2 1 0 1 1 1 0 0 0 0 0 0 2 5 13 7 7 6 7 7 8 11 14 15 10 10 9
0 0 0 0 0 0 0 0 0 0 0 0 0 0 0 1 1 0 0 0 0 0 0 0 0 0 0 0 0 0 1 3 3 6 8 9 7 6 7 8 13 4 11
0 0 0 0 0 0 0 0 0 0 0 0 0 0 0 1 0 0 0 0 0 1 0 0 0 0 0 0 0 0 0 0 1 0 2 4 3 2 0 0 2 9 0
0 0 0 0 0 0 0 0 0 0 0 0 0 0 0 1 0 0 0 0 0 0 2 2 1 1 0 0 0 0 0 0 0 0 0 0 1 1 1 0 0 0 0
0 0 0 0 0 0 0 0 0 0 0 0 0 0 0 4 1 0 0 0 1 3 4 4 2 4 2 1 0 0 0 0 0 0 0 0 0 1 1 3 1 0 0
0 0 0 0 0 0 0 0 0 0 0 0 0 0 0 0 3 1 0 1 5 5 11 13 15 3 3 5 4 4 0 0 0 0 2 3 2 0 2 3 4 3 1
0 0 0 0 0 0 0 2 0 0 0 0 0 1 2 1 0 3 1 0 0 4 16 18 15 2 1 1 4 2 0 1 7 7 6 6 4 5 3 3 1 2 4
0 0 0 0 0 0 1 6 1 0 0 0 0 0 1 2 1 0 2 0 0 6 13 4 0 0 0 0 0 0 0 9 11 9 11 13 12 10 6 4 2 0 1
0 0 0 0 0 0 1 4 3 2 1 1 0 0 0 3 5 1 4 1 0 0 0 0 0 0 0 0 1 1 5 7 8 11 11 14 15 16 15 13 10 8 6
0 0 0 0 0 0 0 2 2 3 0 2 6 0 0 6 10 2 0 0 0 0 0 0 1 1 3 4 4 2 5 6 5 7 5 5 5 8 10 11 11 9 6
0 0 0 0 0 0 0 0 0 0 0 0 0 0 0 0 0 2 0 0 0 0 0 0 1 2 5 5 5 4 4 3 3 3 3 1 1 2 1 4 4 5 6
0 0 0 0 0 0 0 0 0 0 0 0 0 0 0 0 0 0 13 0 0 0 0 0 1 3 4 3 2 2 3 3 1 1 1 1 0 0 0 0 1 1 1
0 0 0 0 0 0 0 0 0 0 1 2 0 0 0 0 0 0 7 0 1 0 0 0 1 2 1 0 0 0 0 0 1 0 1 1 0 1 1 0 0 0 0
0 0 0 0 0 0 0 0 0 0 0 0 0 0 0 1 1 2 2 3 2 1 0 0 0 0 0 0 1 1 0 1 1 2 2 1 1 1 1 0 1 0 0
0 0 0 0 0 0 0 0 0 0 0 0 0 1 1 0 10 5 3 3 3 1 1 0 0 0 0 0 1 1 2 2 2 1 2 4 3 3 2 1 1 2 1
0 0 0 0 0 0 0 0 0 0 0 0 1 1 0 3 13 6 2 3 3 1 1 0 0 0 1 1 0 2 1 3 1 1 3 2 3 3 1 2 2 1 1
0 0 0 0 0 0 0 0 0 0 0 0 1 0 0 4 4 3 2 2 2 1 0 0 0 0 1 1 1 3 2 2 3 2 3 2 2 3 3 2 3 3 3
0 0 0 0 0 0 0 0 0 1 1 1 1 2 2 5 3 2 2 1 1 0 0 0 0 0 1 1 1 2 2 2 3 2 2 3 3 3 5 5 3 4 4
0 0 0 0 0 0 1 2 2 0 1 4 4 4 3 3 3 1 1 1 0 0 0 0 0 0 0 0 0 1 3 3 3 2 0 2 2 2 3 3 4 3 5
0 0 0 0 0 1 1 1 5 5 4 3 3 2 1 1 0 1 1 0 0 0 0 0 0 0 0 0 0 0 0 0 1 0 2 1 1 0 2 2 2 3 3
0 0 0 0 1 2 4 5 3 2 1 2 2 2 1 1 0 0 0 0 0 0 0 0 0 0 0 0 0 0 0 0 0 0 0 1 2 2 3 3 1 5 5
CIN
0 0 0 0 0 0 0 0 0 0 0 0 0 0 0 0 0 0 0 0 0 0 0 0 0 0 0 0 0 0 0 0 0 0 0 0 0 0 0 0 0 0 0
0 0 0 0 0 0 0 0 0 0 0 0 0 0 0 0 0 0 0 0 0 0 0 0 0 0 0 0 0 0 0 0 0 0 0 0 0 0 0 0 0 0 0
0 0 0 0 0 0 0 0 0 0 0 0 0 0 0 0 0 0 0 0 0 0 0 0 0 0 0 0 0 0 0 0 0 0 0 0 0 0 0 0 0 0 0
0 0 0 0 0 0 0 0 0 0 0 0 0 0 0 0 0 0 0 0 0 0 0 0 0 0 0 0 0 0 0 0 0 0 0 0 0 0 0 0 0 0 0
0 0 0 0 0 0 0 0 0 0 0 0 0 0 0 0 0 0 0 0 0 0 0 0 0 0 0 0 0 0 0 0 0 0 0 0 0 0 0 0 0 0 0
0 0 0 0 0 0 0 0 0 0 0 0 0 0 0 0 0 0 0 0 0 0 0 0 0 0 0 0 0 0 0 0 0 0 0 0 0 0 0 0 0 0 0
0 0 0 0 0 0 0 0 0 0 0 0 0 0 0 0 0 0 0 0 0 0 0 0 0 0 0 0 0 0 0 0 0 0 0 0 0 0 0 0 0 0 0
0 0 0 0 0 0 0 0 0 0 0 0 0 0 0 0 0 0 0 0 0 0 0 0 0 0 0 0 0 0 0 0 0 0 0 0 0 0 0 0 0 0 0
0 0 0 0 0 0 0 0 0 0 0 0 0 0 0 0 0 0 0 0 0 0 0 0 0 0 0 0 0 0 0 0 0 0 0 0 0 0 0 0 0 0 0
0 0 0 0 0 0 0 0 0 0 0 0 0 0 0 0 0 0 0 0 0 0 0 0 0 0 0 0 0 0 0 0 0 0 0 0 0 0 0 0 0 0 0
0 0 0 0 0 0 0 0 0 0 0 0 0 0 0 0 -1 0 0 0 0 0 0 0 0 0 0 0 0 0 0 0 0 0 0 0 0 0 0 0 0 0 0
0 0 0 0 0 0 0 0 0 0 0 0 0 0 0 0 0 0 0 0 0 0 0 0 0 0 0 0 0 0 0 0 0 0 0 0 0 0 0 0 0 0 0
0 0 0 0 0 0 0 0 0 0 0 0 0 0 0 0 0 0 0 0 0 0 0 0 0 0 0 0 0 0 0 0 0 0 0 0 0 0 0 0 0 0 0
0 0 0 0 0 0 0 0 0 0 0 0 0 0 0 0 0 0 0 0 0 0 0 0 0 0 0 0 0 0 0 0 0 0 0 0 0 0 0 0 0 0 0
0 0 0 0 0 0 0 0 0 0 0 0 0 0 0 0 0 0 0 0 0 0 0 0 0 0 0 0 0 0 0 0 0 0 0 0 0 0 0 0 0 0 0
0 0 0 0 0 0 0 0 0 0 0 0 0 0 0 0 0 0 0 0 0 0 0 0 0 0 0 0 0 0 0 0 0 0 0 0 0 0 0 0 0 0 0
0 0 0 0 0 0 0 0 0 0 0 0 0 0 0 0 0 0 0 0 0 0 0 0 0 0 0 0 0 0 0 0 0 0 0 0 0 0 0 0 0 0 0
0 0 0 0 0 0 0 0 0 0 0 0 0 0 0 0 0 0 0 0 0 0 0 0 0 0 0 0 0 0 0 0 0 0 0 0 0 0 0 0 0 0 0
0 0 0 0 0 0 0 0 0 0 0 0 0 0 0 0 0 0 0 0 0 0 0 0 0 0 0 0 0 0 0 0 0 0 0 0 0 0 0 0 0 0 0
0 0 0 0 0 0 0 0 0 0 0 0 0 0 0 0 0 0 0 0 0 0 0 0 0 0 0 0 0 0 0 0 0 0 0 0 0 0 0 0 0 0 0
0 0 0 0 0 0 0 0 0 0 0 0 0 0 0 0 0 0 0 0 0 0 0 0 0 0 0 0 0 0 0 0 0 0 0 0 0 0 0 0 0 0 0
0 0 0 0 0 0 0 0 0 0 0 0 0 0 0 0 0 0 0 0 0 0 0 0 0 0 0 0 0 0 0 0 0 0 0 0 0 0 0 0 0 0 0
0 0 0 0 0 0 0 0 0 0 0 0 0 0 0 0 0 0 0 0 0 0 0 0 0 0 0 0 0 0 0 0 0 0 0 0 0 0 0 0 0 0 0
0 0 0 0 0 0 0 0 0 0 0 0 0 0 0 0 0 0 0 0 0 0 0 0 0 0 0 0 0 0 0 0 0 0 0 0 0 0 0 0 0 0 0
0 0 0 0 0 0 0 0 0 0 0 0 0 0 0 0 0 0 0 0 0 0 0 0 0 0 0 0 0 0 0 0 0 0 0 0 0 0 0 0 0 0 0
0 0 0 0 0 0 0 0 0 0 0 0 0 0 0 0 0 0 0 0 0 0 0 0 0 0 0 0 0 0 0 0 0 0 0 0 0 0 0 0 0 0 0
Wind_Speed
9 9 8 7 7 7 7 8 8 9 9 9 9 9 9 10 10 10 11 12 12 12 12 14 14 14 10 9 8 8 8 7 5 5 6 8 10 9 10 9 11 12 13
7 10 9 7 6 8 8 9 8 8 8 8 8 9 9 10 10 11 11 11 12 13 13 14 16 11 15 13 9 11 10 10 6 8 8 9 10 14 10 12 10 10 11
11 9 9 8 7 8 8 8 8 7 6 7 7 9 9 9 10 10 11 11 11 11 12 13 13 15 14 12 13 11 9 8 8 6 7 8 6 12 11 9 12 11 11
11 10 9 9 8 8 7 7 7 7 7 6 6 5 5 8 9 10 10 10 11 11 11 12 13 14 15 14 12 13 11 9 9 8 7 9 8 11 10 9 8 10 11
11 10 10 10 8 7 7 7 6 6 7 7 7 6 7 8 7 8 10 10 10 11 11 11 13 16 21 19 12 14 13 11 10 9 9 9 10 10 12 9 8 4 8
11 10 10 10 10 8 8 8 7 8 7 7 8 9 8 8 13 12 9 10 11 12 12 12 12 15 14 19 19 23 19 13 13 11 10 11 13 11 10 8 9 7 4
13 12 12 11 10 9 9 8 8 7 8 8 8 8 8 9 11 12 10 8 10 11 12 11 11 11 12 11 14 15 18 20 15 12 12 12 12 13 11 10 8 8 7
14 13 12 11 10 10 9 9 8 7 7 7 7 7 7 8 10 10 9 9 9 10 12 12 12 14 15 12 11 13 13 14 15 11 12 12 13 14 11 8 7 3 5
14 14 13 12 12 11 10 9 8 8 7 7 7 7 7 9 10 8 6 7 9 10 10 12 12 13 17 16 12 12 13 12 12 17 17 17 18 22 20 9 10 8 4
14 14 13 12 12 11 11 10 8 7 7 6 7 6 7 6 10 9 6 5 6 6 8 8 15 13 16 16 11 11 11 11 10 11 11 13 14 15 20 14 10 10 8
14 13 13 12 12 12 11 9 8 7 7 6 6 4 4 5 4 8 7 5 4 4 5 5 7 14 14 15 13 9 8 6 8 8 8 9 10 11 9 10 11 9 8
14 14 13 12 10 10 12 10 9 8 8 6 5 4 3 3 5 6 8 6 5 5 5 4 6 11 13 14 10 12 9 5 5 6 7 8 8 9 9 8 9 8 7
14 13 12 12 11 11 11 10 8 7 6 6 5 4 4 3 3 4 9 8 7 5 5 8 10 10 10 8 13 13 9 6 6 6 7 7 6 6 7 7 7 5 5
13 13 12 11 11 11 8 8 7 7 6 5 5 5 5 4 4 3 4 5 7 5 4 5 5 6 6 4 6 7 6 6 6 6 6 5 5 6 6 7 6 7 5
12 11 11 9 11 10 8 7 7 7 7 6 5 6 7 6 5 4 5 4 3 4 3 2 3 4 4 5 5 5 6 6 6 6 6 7 6 6 7 6 6 6 6
12 10 9 9 9 8 7 6 4 4 11 9 8 8 5 6 5 7 10 9 8 6 2 2 3 3 4 5 5 5 5 6 6 6 6 6 7 7 7 6 6 7 7
11 11 9 9 8 8 7 7 7 5 9 9 12 13 12 9 8 3 11 9 8 4 2 2 2 3 4 4 5 5 5 5 5 5 6 6 7 6 7 6 6 6 6
10 11 9 8 8 8 8 7 6 7 8 6 10 11 12 11 9 5 13 11 4 3 1 1 1 2 3 4 4 4 4 5 5 5 5 5 6 7 7 7 6 7 7
9 8 8 8 7 7 7 6 6 6 6 6 5 4 8 12 10 7 14 3 3 3 2 1 1 2 3 3 3 3 3 4 4 5 5 5 6 6 6 6 7 7 8
9 9 9 7 7 7 6 6 6 6 6 6 5 6 5 6 6 6 4 4 3 3 2 1 0 1 2 2 2 2 3 3 4 4 4 5 5 6 6 6 6 7 6
7 7 8 6 7 7 6 7 6 6 6 6 5 5 6 7 7 6 5 4 4 3 3 1 1 1 1 1 2 3 3 4 3 4 4 5 5 6 6 6 6 6 6
7 6 6 6 5 6 6 6 6 6 5 5 4 4 6 5 4 5 5 5 4 4 3 1 0 1 1 2 3 3 3 3 3 4 4 4 5 6 5 6 6 6 6
6 6 6 5 5 6 6 5 5 5 5 5 4 5 5 4 5 5 5 5 4 4 2 2 1 0 0 1 2 3 3 3 4 3 4 5 5 6 5 6 6 6 6
6 7 7 6 6 6 5 5 4 4 4 4 4 4 5 5 5 6 6 5 4 4 3 2 1 2 1 1 2 2 3 3 3 3 4 6 7 7 6 6 6 6 6
6 7 6 6 6 5 5 5 4 4 4 4 5 5 5 5 6 5 5 4 4 3 3 1 0 1 1 3 4 5 4 3 4 5 5 7 8 8 6 6 6 6 7
6 6 6 5 5 5 5 5 4 4 4 4 5 5 5 5 5 5 5 4 4 3 2 1 1 2 3 4 3 2 4 5 6 6 5 6 6 5 5 6 7 6 7
Wind_Direction
146 129 121 112 107 100 90 82 75 68 59 58 56 56 52 48 43 50 49 39 42 38 28 30 27 24 24 16 14 15 19 6 21 40 7 6 18 16 22 23 26 29 30
139 143 135 118 101 94 87 78 74 76 73 68 69 67 61 54 49 45 49 43 39 35 32 31 30 27 29 24 20 23 21 24 11 22 12 2 22 5 19 33 30 34 32
154 147 140 124 105 99 98 95 86 87 85 81 75 68 63 60 57 50 47 44 40 32 29 30 30 28 32 28 27 23 17 27 24 27 28 16 5 8 7 28 36 37 36
156 153 145 141 128 120 112 108 102 98 95 89 78 76 69 64 58 53 49 43 43 35 30 32 28 31 30 27 32 29 22 25 28 33 28 20 12 11 10 8 10 39 26
157 156 158 151 150 133 122 122 122 112 103 100 86 68 73 66 56 55 54 46 45 46 42 39 40 38 38 34 29 31 25 28 25 30 29 22 16 6 10 2 3 337 49
161 154 150 151 147 139 130 126 122 110 104 96 86 82 70 65 59 56 52 58 50 44 43 41 43 40 39 41 38 41 42 29 31 24 27 22 13 4 356 2 12 10 5
162 156 154 152 148 143 141 137 125 115 107 95 86 82 77 73 62 62 55 61 56 53 49 43 43 40 36 37 46 42 43 41 39 27 30 23 10 2 347 358 12 33 33
160 161 159 159 149 149 149 140 132 123 109 97 89 83 79 70 64 65 61 66 65 59 53 47 48 44 38 35 42 46 41 41 31 32 35 25 22 9 359 354 346 349 53
162 164 165 160 153 154 151 143 137 127 114 103 93 86 81 80 70 66 67 68 69 63 53 57 49 51 42 35 44 45 45 37 40 41 41 36 29 28 23 15 19 14 27
166 166 165 161 160 158 156 149 141 133 123 118 103 82 69 76 80 70 58 75 69 72 64 51 59 50 44 39 37 38 41 30 23 26 30 32 31 27 30 31 16 25 12
163 162 163 164 162 159 156 150 149 137 120 109 108 91 76 40 72 91 81 72 65 68 62 53 46 36 44 37 35 40 37 15 27 29 30 28 28 30 30 33 32 30 27
160 162 163 164 162 165 159 156 151 137 129 128 128 127 112 63 40 58 98 89 70 68 68 60 49 43 36 40 36 34 27 6 18 24 26 26 22 20 21 24 34 39 39
159 163 166 166 168 167 163 163 158 160 155 152 148 145 142 125 95 46 108 100 82 80 66 69 65 53 49 44 38 31 23 17 13 16 13 14 9 2 8 9 23 18 40
162 163 163 170 170 171 171 171 168 176 177 180 167 165 161 158 143 127 123 121 106 97 92 66 66 71 65 50 29 28 24 20 10 11 2 358 352 354 3 358 357 2 350
163 165 170 175 176 173 180 182 185 191 195 188 184 175 172 176 164 172 165 155 142 111 123 78 37 23 21 20 22 22 20 14 15 8 2 358 357 350 353 353 354 345 347
165 171 173 174 179 180 177 165 185 197 193 197 173 171 178 167 176 172 181 163 149 151 92 48 41 16 10 3 3 4 15 11 11 2 3 358 351 346 345 343 345 342 337
171 171 171 178 179 176 176 177 168 164 186 184 173 178 177 182 199 216 170 145 135 138 93 80 37 12 353 358 355 359 2 13 351 3 359 359 350 341 338 341 343 341 337
171 170 173 178 181 181 185 184 175 173 173 175 184 187 192 193 197 216 162 144 149 120 120 80 25 358 354 355 357 358 357 357 2 354 2 358 354 340 341 344 341 341 335
165 173 178 180 185 187 184 182 185 185 183 176 177 207 209 212 210 203 154 195 186 177 163 147 50 353 352 354 13 1 348 356 357 345 360 350 352 340 341 339 333 334 313
180 174 178 181 179 186 186 187 190 196 193 193 197 206 183 189 176 177 172 161 165 157 157 151 81 351 348 347 349 342 321 338 347 343 352 346 349 334 335 333 334 329 329
176 173 181 180 186 190 189 196 197 193 199 201 207 190 196 205 210 189 166 162 153 149 150 132 88 357 308 310 319 333 330 329 337 336 336 340 339 329 334 329 325 325 323
171 168 177 191 181 182 190 191 189 190 193 195 178 163 188 202 174 156 145 137 122 115 111 115 5 336 340 330 329 319 314 309 314 321 325 325 327 330 330 326 325 328 323
152 157 163 162 164 153 160 162 165 175 179 185 176 163 170 159 145 142 133 129 131 121 97 101 122 199 30 326 321 307 295 315 328 325 315 319 321 328 321 321 323 320 333
148 155 156 154 159 160 159 160 166 174 177 169 160 152 149 142 135 126 125 128 127 121 112 101 30 331 327 307 309 301 278 306 303 307 307 307 308 314 314 311 308 317 311
148 153 159 159 160 155 149 156 157 151 145 143 139 136 130 128 128 126 126 132 129 141 130 137 350 140 185 309 314 313 348 348 315 318 298 298 298 298 289 298 303 299 309
146 151 148 144 146 153 155 147 137 136 136 135 135 137 140 136 130 137 140 144 147 144 150 146 169 277 309 291 292 299 324 314 305 310 302 295 294 290 293 296 303 300 307